Location: Corbe?ti
(46.0833°N, 22.3833°E)
Time: 04:03:43
(UTC+00:00)

Daily predictions for brighter satellites

Satellite Brightness Start Highest point End
(mag) Time Altitude Azimuth Time Altitude Azimuth Time Altitude Azimuth
PSLV R/B 3.7 00:01:43 10° N 00:05:34 72° WNW 00:06:51 40° SSW
SJ 16-02 3.1 00:03:17 14° SE 00:05:42 22° E 00:08:57 10° NE
Cosmos 921 Rocket 3.7 00:04:35 27° SSE 00:06:28 44° ESE 00:10:28 10° NNE
COSMOS 2455 2.8 00:04:46 28° SSW 00:08:07 89° NW 00:14:11 10° NNE
Spot 1 4.3 00:05:38 10° NNE 00:10:39 88° WNW 00:13:06 30° SSW
IDEFIX/ARIANE 42P 2.7 00:08:10 10° NNE 00:13:25 70° ESE 00:16:31 25° S
NOSS 3-1 (A) 2.8 00:14:35 30° SW 00:16:59 89° NW 00:22:36 10° NE
ADEOS II 4.5 00:17:47 10° ENE 00:20:32 14° E 00:23:16 10° ESE
SL-8 R/B 4.0 00:16:50 10° W 00:21:34 67° N 00:26:19 10° ENE
USA 308 3.2 00:23:07 22° W 00:25:23 55° NNW 00:29:35 10° NE
NOSS 3-1 (C) 4.2 00:22:31 13° W 00:26:28 36° NW 00:31:47 10° NNE
Cosmos 1833 4.5 00:22:44 10° NW 00:28:10 48° WSW 00:31:39 21° S
Iridium 82 3.7 00:28:51 51° SSW 00:29:23 73° W 00:32:11 10° N
SL-19 R/B 4.4 00:27:01 17° SSE 00:29:26 57° ENE 00:32:39 10° N
Resurs 1-4 Rocket 3.8 00:26:27 10° NE 00:30:50 26° E 00:35:11 10° SSE
Cosmos 1656 4.4 00:29:37 17° S 00:33:25 43° ESE 00:38:37 10° NE
Cosmos 1140 Rocket 3.5 00:31:35 25° SW 00:34:34 70° WNW 00:39:41 10° NNE
H-2A R/B 3.9 00:32:34 10° NE 00:36:50 25° E 00:41:00 10° SSE
Cosmos 1346 Rocket 2.5 00:40:44 29° SSW 00:42:26 69° W 00:46:05 10° N
SL-4 R/B 2.5 00:42:23 13° W 00:45:00 40° NNW 00:47:59 10° NE
Cosmos 1763 Rocket 3.4 00:41:18 10° NNW 00:46:23 88° ENE 00:51:25 10° SSE
Cosmos 371 Rocket 3.3 00:44:35 21° SSW 00:47:46 81° ESE 00:52:38 10° NNE
Cosmos 304 Rocket 3.7 00:47:10 22° SSW 00:50:15 84° WNW 00:55:03 10° NNE
Cosmos 2297 Rocket 3.4 00:46:55 10° NNW 00:52:21 44° NE 00:57:44 10° SE
Lacrosse 4 Rocket 2.5 00:51:36 10° NW 00:55:06 26° WSW 00:56:30 21° SW
OPS 8737 4.4 00:52:15 10° NW 00:55:23 70° NE 00:58:31 10° SE
Cosmos 2369 Rocket 3.9 00:51:14 10° W 00:55:36 23° NW 01:00:01 10° N
BREEZE-M DEB (TANK) 3.3 00:45:28 10° WNW 00:58:22 68° SW 01:01:44 10° SE
FENGYUN 3A 3.8 00:55:45 10° N 01:01:02 63° WNW 01:05:09 17° SSW
ADEOS Rocket 3.3 00:55:06 10° N 01:01:19 56° WNW 01:05:49 16° SW
Cosmos 1025 Rocket 3.3 00:57:57 14° S 01:01:41 67° E 01:06:01 10° NNE
MSX 4.3 00:56:39 10° N 01:02:12 50° WNW 01:06:35 16° SW
MOZ.5/SAFIR/RUBIN 5/SL-8 3.7 00:58:03 10° SSE 01:02:39 88° ENE 01:07:17 10° NNW
CZ-2D R/B 3.1 00:58:17 10° NNE 01:03:32 45° E 01:08:40 10° S
MOS 1-B Rocket 4.1 01:01:03 10° N 01:07:10 61° WNW 01:11:47 15° SW
NOSS 2-2 (C) 3.5 01:03:58 10° NW 01:07:44 86° SW 01:12:56 10° SE
DMSP B5D2-2 4.1 01:06:02 10° SSE 01:11:17 85° WSW 01:16:35 10° NNW
Lacrosse 5 rocket 3.9 01:08:55 10° NNW 01:11:29 19° NNE 01:14:00 10° ENE
USA 276 3.5 01:11:09 10° WNW 01:13:56 38° N 01:16:50 10° ENE
ALOS 2.8 01:11:41 10° NNE 01:16:10 56° E 01:20:38 10° S
NPP 4.2 01:11:42 10° N 01:16:52 47° WNW 01:21:17 14° SW
Cosmos 468 Rocket 4.0 01:12:04 10° NNW 01:17:12 81° ENE 01:22:18 10° SSE
Cosmos 2360 4.3 01:12:40 14° SSW 01:17:37 82° ESE 01:23:20 10° NNE
SL-24 DEB 4.1 01:17:00 10° S 01:21:23 70° W 01:25:49 10° N
Cosmos 2242 Rocket 4.4 01:20:29 15° SW 01:23:38 35° WNW 01:27:42 10° N
Cosmos 1455 Rocket 4.0 01:23:52 10° N 01:28:03 48° ENE 01:32:14 10° SSE
Cosmos 2292 Rocket 3.2 01:26:26 10° S 01:29:18 56° E 01:32:33 10° NNE
CENTAUR R/B 3.7 01:23:02 10° NW 01:31:17 72° NE 01:40:45 10° SE
Cosmos 1378 Rocket 4.4 01:28:48 13° SW 01:32:07 35° WNW 01:36:03 10° N
Envisat 3.0 01:27:59 10° N 01:33:03 73° WNW 01:38:05 10° SSW
Okean 2 Rocket 3.1 01:30:47 10° NNW 01:35:07 66° W 01:39:26 10° S
Cosmos 1727 Rocket 4.2 01:29:37 10° S 01:35:49 75° E 01:42:02 10° NNE
Cosmos 2084 Rocket 4.3 01:32:06 10° SSW 01:35:50 40° ESE 01:39:39 10° NE
SeaSat 1 2.4 01:31:51 10° SSE 01:36:46 85° WSW 01:41:41 10° NNW
USA 229 DEB 4.2 01:31:23 10° S 01:37:00 47° ESE 01:43:15 10° NE
USA 229 4.2 01:31:27 10° S 01:37:02 47° ESE 01:43:17 10° NE
Cosmos 405 Rocket 3.1 01:35:02 14° SW 01:37:09 30° WNW 01:39:50 10° N
Cosmos 407 Rocket 4.2 01:37:55 11° SW 01:42:32 40° WNW 01:47:21 10° N
SJ 16-02 2.1 01:39:46 11° SW 01:43:31 37° WNW 01:47:29 10° N
Cosmos 2151 Rocket 4.2 01:39:33 10° NNW 01:43:46 39° W 01:47:55 10° SSW
Cosmos 1459 Rocket 4.4 01:41:33 10° N 01:47:42 67° E 01:53:55 10° SSE
SL-16 R/B 3.8 01:42:31 10° SE 01:48:22 47° ENE 01:54:14 10° N
Cosmos 2173 Rocket 4.3 01:42:19 10° N 01:48:40 73° E 01:54:53 10° SSE
IDEFIX/ARIANE 42P 4.3 01:48:43 10° NNW 01:52:19 19° WNW 01:55:53 10° WSW
Cosmos 841 Rocket 3.6 01:47:24 10° NNW 01:52:39 82° ENE 01:57:48 10° SSE
METEOR-M 4.5 01:47:34 10° NNE 01:52:55 69° ESE 01:58:13 10° S
NOSS 2-2 (E) 3.7 01:49:43 10° NW 01:53:27 80° NE 01:58:34 10° SE
Cosmos 2221 Rocket 3.9 01:51:04 10° SSW 01:55:28 54° WNW 01:59:56 10° N
Cosmos 540 Rocket 4.5 01:51:47 10° NW 01:55:55 26° W 02:00:02 10° SSW
Cosmos 1862 3.6 01:52:49 10° S 01:56:17 56° E 01:59:47 10° NNE
Cosmos 2100 Rocket 4.1 01:50:43 10° N 01:57:03 86° E 02:03:15 10° S
Cosmos 1190 Rocket 4.2 01:52:44 10° SSW 01:57:56 65° WNW 02:03:10 10° NNE
Cosmos 1954 Rocket 4.0 01:54:52 10° SSW 02:00:01 74° WNW 02:05:12 10° NNE
ADEOS II 2.1 01:55:27 10° NNE 02:00:42 81° WNW 02:05:56 10° SSW
SL-8 R/B 3.9 01:59:21 10° WNW 02:04:07 80° NNE 02:08:54 10° ESE
Cosmos 2227 Rocket 2.7 02:00:31 10° NNW 02:06:10 67° ENE 02:11:46 10° SE
Cosmos 1697 Rocket 2.9 02:00:37 10° SSW 02:06:13 79° ESE 02:11:51 10° NNE
USA 234 3.7 02:01:51 10° ENE 02:08:17 57° SE 02:14:41 10° SSW
